This is the latest recevied weather packets stored in our database for station/object KD7CIH. If no packets are shown the sender has not sent any weather packets the latest 10 day(s).
| Time | Temp. | Humidity | Pressure | Rain* | Wind** | Luminosity | Snow |
|---|---|---|---|---|---|---|---|
| 1777832286 | 17.22° C | 19% | 1011.9 hPa | 0 mm | - | - | - |
| 1777831985 | 17.22° C | 18% | 1011.9 hPa | 0 mm | - | - | - |
| 1777831688 | 17.22° C | 19% | 1011.9 hPa | 0 mm | - | - | - |
| 1777831381 | 16.67° C | 19% | 1011.9 hPa | 0 mm | - | - | - |
| 1777831201 | 16.67° C | 18% | 1011.9 hPa | 0 mm | - | - | - |
| 1777830771 | 16.67° C | 19% | 1011.9 hPa | 0 mm | - | - | - |
| 1777830463 | 16.67° C | 20% | 1012 hPa | 0 mm | - | - | - |
| 1777830157 | 16.67° C | 19% | 1012 hPa | 0 mm | - | - | - |
| 1777829982 | 16.67° C | 21% | 1012.3 hPa | 0 mm | - | - | - |
| 1777829554 | 16.11° C | 21% | 1012.3 hPa | 0 mm | - | - | - |
| 1777829382 | 16.67° C | 19% | 1012.4 hPa | 0 mm | - | - | - |
| 1777828954 | 16.11° C | 20% | 1012.4 hPa | 0 mm | - | - | - |
| 1777828654 | 16.11° C | 21% | 1012.4 hPa | 0 mm | - | - | - |
| 1777828359 | 16.11° C | 20% | 1012.7 hPa | 0 mm | - | - | - |
| 1777827754 | 16.11° C | 22% | 1012.7 hPa | 0 mm | - | - | - |
| 1777827582 | 16.11° C | 22% | 1012.7 hPa | 0 mm | - | - | - |
| 1777827156 | 15.56° C | 23% | 1012.8 hPa | 0 mm | - | - | - |
| 1777826980 | 15.56° C | 22% | 1012.7 hPa | 0 mm | - | - | - |
| 1777826554 | 15.56° C | 23% | 1012.8 hPa | 0 mm | - | - | - |
| 1777826256 | 15.56° C | 25% | 1012.8 hPa | 0 mm | - | - | - |
| 1777825954 | 15° C | 24% | 1012.8 hPa | 0 mm | - | - | - |
| 1777825776 | 15.56° C | 25% | 1012.8 hPa | 0 mm | - | - | - |
| 1777825481 | 15° C | 26% | 1012.9 hPa | 0 mm | - | - | - |
| 1777825055 | 15° C | 26% | 1012.9 hPa | 0 mm | - | - | - |
| 1777824753 | 14.44° C | 29% | 1012.8 hPa | 0 mm | - | - | - |
* Rain latest hour (hover to see other rain measurements)
** Current wind speed in m/s (hover to see current wind gust speed)